GW2328 Weather Reports


time (UTC)temp
C
wind
direction
speed
KPH
gust
KPH
rain 1hr
cm
rain 24hr
cm
rain mn
cm
humidity
%
barometer
mb
20260504003358 15 146 0.0 0.0 0.00 0.00 0.00 48 1018.1
20260504002855 15 146 0.0 0.0 0.00 0.00 0.00 48 1018.1
20260504002352 15 145 0.0 0.0 0.00 0.00 0.00 47 1017.8
20260504001849 16 145 0.0 0.0 0.00 0.00 0.00 47 1017.7
20260504001347 16 148 0.0 1.6 0.00 0.00 0.00 46 1017.7
20260504000843 16 153 0.0 0.0 0.00 0.00 0.00 46 1017.8
20260504000340 16 147 0.0 3.2 0.00 0.00 0.00 46 1017.3
20260503235838 16 163 0.0 1.6 0.00 0.00 0.00 45 1017.4
20260503235335 16 152 0.0 3.2 0.00 0.00 0.00 45 1017.4
20260503234833 16 157 0.0 1.6 0.00 0.00 0.00 44 1017.6
20260503234330 17 199 3.2 4.8 0.00 0.00 0.00 44 1017.3
20260503233828 17 201 4.8 4.8 0.00 0.00 0.00 44 1017.3
20260503233324 17 143 0.0 1.6 0.00 0.00 0.00 44 1017.7
20260503232820 17 152 0.0 4.8 0.00 0.00 0.00 43 1017.5
20260503232318 17 154 1.6 3.2 0.00 0.00 0.00 43 1017.6
20260503231816 17 161 1.6 4.8 0.00 0.00 0.00 42 1017.4
20260503231312 17 261 3.2 4.8 0.00 0.00 0.00 41 1017.2
20260503230808 17 166 3.2 4.8 0.00 0.00 0.00 41 1017.5
20260503230306 17 126 1.6 4.8 0.00 0.00 0.00 41 1017.5
20260503225803 17 307 3.2 4.8 0.00 0.00 0.00 41 1017.7
20260503225258 17 156 1.6 4.8 0.00 0.00 0.00 40 1017.5
20260503224755 17 285 3.2 4.8 0.00 0.00 0.00 40 1017.9
20260503224253 18 137 1.6 4.8 0.00 0.00 0.00 40 1017.9
20260503223750 17 153 3.2 3.2 0.00 0.00 0.00 40 1017.9
20260503223248 17 148 4.8 9.7 0.00 0.00 0.00 39 1018.2
20260503222743 18 211 4.8 8.0 0.00 0.00 0.00 39 1018.3
20260503222242 17 169 3.2 3.2 0.00 0.00 0.00 40 1018.4
20260503221740 17 138 1.6 3.2 0.00 0.00 0.00 39 1018.5
20260503221238 17 104 1.6 16.1 0.00 0.00 0.00 38 1018.5
20260503220734 17 162 1.6 8.0 0.00 0.00 0.00 38 1018.5
20260503220231 18 179 0.0 12.9 0.00 0.00 0.00 37 1018.7
20260503215727 17 175 1.6 3.2 0.00 0.00 0.00 37 1018.8
20260503215225 18 218 1.6 4.8 0.00 0.00 0.00 36 1018.9
20260503214723 18 150 1.6 4.8 0.00 0.00 0.00 36 1018.8
20260503214219 19 156 3.2 4.8 0.00 0.00 0.00 35 1019.1
20260503213717 19 150 0.0 4.8 0.00 0.00 0.00 35 1019.0
20260503213214 18 157 0.0 4.8 0.00 0.00 0.00 35 1019.7
20260503212711 19 140 6.4 9.7 0.00 0.00 0.00 35 1019.4
20260503212209 19 224 3.2 12.9 0.00 0.00 0.00 34 1019.5
20260503211706 20 220 3.2 9.7 0.00 0.00 0.00 34 1019.3
20260503211202 20 114 3.2 11.3 0.00 0.00 0.00 35 1019.6
20260503210658 20 184 1.6 4.8 0.00 0.00 0.00 35 1019.7
20260503210155 19 138 1.6 4.8 0.00 0.00 0.00 35 1019.8
20260503205650 19 147 3.2 4.8 0.00 0.00 0.00 35 1019.3
20260503205147 20 211 3.2 8.0 0.00 0.00 0.00 34 1019.3
20260503204643 20 166 1.6 12.9 0.00 0.00 0.00 34 1019.4
20260503204141 19 173 3.2 4.8 0.00 0.00 0.00 34 1019.6
20260503203638 19 203 4.8 9.7 0.00 0.00 0.00 34 1019.6
20260503203136 19 167 0.0 4.8 0.00 0.00 0.00 34 1019.6
20260503202633 19 223 8.0 12.9 0.00 0.00 0.00 34 1019.8
20260503202131 19 148 1.6 8.0 0.00 0.00 0.00 34 1019.9
20260503201629 19 196 6.4 9.7 0.00 0.00 0.00 34 1020.0
20260503201126 19 245 1.6 4.8 0.00 0.00 0.00 34 1020.2
20260503200622 19 143 6.4 12.9 0.00 0.00 0.00 34 1020.2
20260503200118 18 167 3.2 3.2 0.00 0.00 0.00 34 1020.2
20260503195616 18 237 4.8 9.7 0.00 0.00 0.00 34 1020.5
20260503195112 18 233 4.8 14.5 0.00 0.00 0.00 34 1020.2
20260503194609 18 143 1.6 9.7 0.00 0.00 0.00 34 1020.7
20260503194104 18 180 3.2 14.5 0.00 0.00 0.00 34 1020.8
20260503193601 18 131 3.2 9.7 0.00 0.00 0.00 34 1020.7
20260503193056 18 322 6.4 11.3 0.00 0.00 0.00 34 1021.0
20260503192553 18 129 4.8 8.0 0.00 0.00 0.00 34 1021.3
20260503192048 18 185 3.2 8.0 0.00 0.00 0.00 34 1021.5
20260503191540 18 226 6.4 9.7 0.00 0.00 0.00 34 1021.6
20260503191037 18 151 1.6 8.0 0.00 0.00 0.00 34 1021.5
20260503190533 18 151 0.0 4.8 0.00 0.00 0.00 35 1021.1
20260503190030 18 111 4.8 9.7 0.00 0.00 0.00 34 1021.8
20260503185526 18 196 4.8 11.3 0.00 0.00 0.00 34 1022.1
20260503185021 18 159 3.2 4.8 0.00 0.00 0.00 35 1022.1
20260503184518 18 180 3.2 3.2 0.00 0.00 0.00 35 1021.9
20260503184014 18 173 3.2 4.8 0.00 0.00 0.00 36 1022.2
20260503183511 17 239 4.8 8.0 0.00 0.00 0.00 36 1022.3
20260503183008 17 140 3.2 9.7 0.00 0.00 0.00 35 1022.4
20260503182507 18 203 4.8 8.0 0.00 0.00 0.00 35 1022.4
20260503182005 17 231 4.8 8.0 0.00 0.00 0.00 35 1022.5
20260503181500 17 157 0.0 4.8 0.00 0.00 0.00 36 1022.3
20260503180956 17 85 1.6 8.0 0.00 0.00 0.00 36 1022.8
20260503180454 17 288 6.4 9.7 0.00 0.00 0.00 35 1022.5
20260503175951 17 140 4.8 9.7 0.00 0.00 0.00 35 1022.8
20260503175449 17 201 3.2 9.7 0.00 0.00 0.00 36 1022.8
20260503174945 17 148 1.6 4.8 0.00 0.00 0.00 36 1022.8
20260503174443 17 137 1.6 3.2 0.00 0.00 0.00 36 1022.6
20260503173938 17 135 8.0 9.7 0.00 0.00 0.00 36 1023.0
20260503173434 17 143 1.6 8.0 0.00 0.00 0.00 35 1023.0
20260503172931 17 165 0.0 8.0 0.00 0.00 0.00 35 1022.9
20260503172429 17 132 4.8 11.3 0.00 0.00 0.00 35 1023.3
20260503171925 17 191 1.6 4.8 0.00 0.00 0.00 35 1023.3
20260503171422 17 136 3.2 9.7 0.00 0.00 0.00 35 1023.6
20260503170919 17 174 3.2 4.8 0.00 0.00 0.00 36 1023.4
20260503170415 17 150 0.0 4.8 0.00 0.00 0.00 36 1023.6
20260503150807 13 155 4.8 9.7 0.00 0.00 0.00 56 1025.2
20260503150303 13 257 4.8 9.7 0.00 0.00 0.00 58 1025.1
20260503140228 10 162 1.6 3.2 0.00 0.00 0.00 86 1024.9
20260503131157 6 154 0.0 0.0 0.00 0.00 0.00 94 1025.5
20260503130655 5 157 0.0 0.0 0.00 0.00 0.00 94 1025.3
20260503130152 5 151 0.0 0.0 0.00 0.00 0.00 94 1025.3
20260503120118 0 143 0.0 0.0 0.00 0.00 0.00 93 1025.2
20260503110545 0 143 0.0 0.0 0.00 0.00 0.00 91 1024.9
20260503090432 0 143 0.0 0.0 0.00 0.00 0.00 90 1024.5
20260503081359 0 143 0.0 0.0 0.00 0.00 0.00 89 1024.0
20260503080855 0 143 0.0 0.0 0.00 0.00 0.00 89 1024.1
20260503080352 0 143 0.0 0.0 0.00 0.00 0.00 89 1024.1
20260503072829 1 143 0.0 0.0 0.00 0.00 0.00 88 1024.0
20260503072326 1 143 0.0 0.0 0.00 0.00 0.00 88 1023.9
20260503071822 1 143 0.0 0.0 0.00 0.00 0.00 87 1023.9
20260503071320 1 143 0.0 0.0 0.00 0.00 0.00 87 1024.0
20260503070815 1 143 0.0 0.0 0.00 0.00 0.00 87 1024.2
20260503070314 1 143 0.0 0.0 0.00 0.00 0.00 87 1024.1
20260503060233 2 143 0.0 0.0 0.00 0.00 0.00 84 1024.2
20260503054719 2 143 0.0 0.0 0.00 0.00 0.00 84 1024.4
20260503054217 2 143 0.0 0.0 0.00 0.00 0.00 83 1024.4
20260503053715 2 143 0.0 0.0 0.00 0.00 0.00 83 1024.4
20260503053213 2 143 0.0 0.0 0.00 0.00 0.00 83 1024.5
20260503052709 2 143 0.0 0.0 0.00 0.00 0.00 82 1024.4
20260503052206 2 143 0.0 0.0 0.00 0.00 0.00 82 1024.3
20260503051701 2 143 0.0 0.0 0.00 0.00 0.00 82 1024.3
20260503051159 2 143 0.0 0.0 0.00 0.00 0.00 81 1024.3
20260503050655 3 143 0.0 0.0 0.00 0.00 0.00 81 1024.1
20260503050152 3 143 0.0 0.0 0.00 0.00 0.00 80 1024.4
20260503045649 3 143 0.0 0.0 0.00 0.00 0.00 80 1024.2
20260503045146 3 143 0.0 0.0 0.00 0.00 0.00 80 1024.4
20260503044643 3 143 0.0 0.0 0.00 0.00 0.00 79 1024.2
20260503044141 3 143 0.0 0.0 0.00 0.00 0.00 79 1024.2
20260503043637 3 143 0.0 0.0 0.00 0.00 0.00 79 1024.2
20260503043134 3 143 0.0 0.0 0.00 0.00 0.00 78 1024.3
20260503042630 3 143 0.0 0.0 0.00 0.00 0.00 78 1024.1
20260503042127 3 143 0.0 0.0 0.00 0.00 0.00 77 1024.3
20260503041623 3 143 0.0 0.0 0.00 0.00 0.00 77 1024.2
20260503041121 3 143 0.0 0.0 0.00 0.00 0.00 77 1024.1
20260503040618 3 143 0.0 0.0 0.00 0.00 0.00 76 1024.0
20260503040116 3 143 0.0 0.0 0.00 0.00 0.00 75 1023.9
20260503035612 3 143 0.0 0.0 0.00 0.00 0.00 75 1024.1
20260503035110 4 143 0.0 0.0 0.00 0.00 0.00 74 1024.0
20260503034607 4 143 0.0 0.0 0.00 0.00 0.00 74 1024.1
20260503034104 4 143 0.0 0.0 0.00 0.00 0.00 73 1024.1
20260503033601 4 143 0.0 0.0 0.00 0.00 0.00 73 1024.3
20260503033059 5 143 0.0 0.0 0.00 0.00 0.00 72 1024.1
20260503032557 5 143 0.0 0.0 0.00 0.00 0.00 72 1024.2
20260503032055 5 143 0.0 0.0 0.00 0.00 0.00 71 1024.1
20260503031552 5 143 0.0 0.0 0.00 0.00 0.00 71 1024.1
20260503031050 5 143 0.0 0.0 0.00 0.00 0.00 70 1023.8
20260503030545 5 143 0.0 0.0 0.00 0.00 0.00 69 1024.1
20260503030043 5 143 0.0 0.0 0.00 0.00 0.00 68 1024.0
20260503025539 5 143 0.0 0.0 0.00 0.00 0.00 68 1023.9
20260503025037 5 143 0.0 0.0 0.00 0.00 0.00 67 1024.1
20260503024533 5 143 0.0 0.0 0.00 0.00 0.00 67 1024.3
20260503024031 6 143 0.0 0.0 0.00 0.00 0.00 66 1024.0
20260503023527 6 143 0.0 0.0 0.00 0.00 0.00 66 1023.7
20260503023025 6 143 0.0 0.0 0.00 0.00 0.00 65 1023.6
20260503022521 6 143 0.0 0.0 0.00 0.00 0.00 65 1023.7
20260503022015 6 143 0.0 0.0 0.00 0.00 0.00 64 1023.7
20260503021512 6 143 0.0 0.0 0.00 0.00 0.00 63 1023.6
20260503021009 7 143 0.0 0.0 0.00 0.00 0.00 63 1023.6
20260503020507 7 143 0.0 0.0 0.00 0.00 0.00 62 1023.4
20260503020003 7 143 0.0 0.0 0.00 0.00 0.00 61 1023.3
20260503015500 7 143 0.0 0.0 0.00 0.00 0.00 61 1023.4
20260503014956 8 143 0.0 0.0 0.00 0.00 0.00 60 1023.0
20260503014453 8 143 0.0 0.0 0.00 0.00 0.00 59 1022.9
20260503013951 8 143 0.0 0.0 0.00 0.00 0.00 58 1022.9
20260503013448 8 143 0.0 0.0 0.00 0.00 0.00 57 1022.9
20260503012945 8 143 0.0 0.0 0.00 0.00 0.00 56 1022.8
20260503012443 9 143 0.0 0.0 0.00 0.00 0.00 55 1023.0
20260503011939 9 143 0.0 0.0 0.00 0.00 0.00 53 1022.7
20260503011436 10 143 0.0 0.0 0.00 0.00 0.00 52 1022.7
20260503010933 10 143 0.0 0.0 0.00 0.00 0.00 51 1022.5
20260503010430 10 143 0.0 0.0 0.00 0.00 0.00 50 1022.5
20260503005927 10 143 0.0 0.0 0.00 0.00 0.00 49 1022.3
20260503005424 10 143 0.0 0.0 0.00 0.00 0.00 49 1022.0
20260503004921 10 143 0.0 0.0 0.00 0.00 0.00 49 1022.4
20260503004418 10 151 0.0 1.6 0.00 0.00 0.00 48 1022.2
20260503003915 11 145 1.6 1.6 0.00 0.00 0.00 48 1022.4